When you browse on this site, cookies collect data to enhance your experience and personalize the content and advertising you see.
Visit our Privacy Policy to learn more. By continuing to use the site, you agree to this use of cookies and data.
  • Em Portugal
  • Lista de países
  • Para 7 dias
  • Temperatura da água
  • Mapas de satélite
  • Mapa do tempo
  • Widgets de tempo
  • user-avatar
    Iniciar Sessão

    Previsão horária em Lisboa

    Hoje, 21 Novembro, Quarta-feira

    Tempo Temperatura Precipitação Vento Pressão Humidade
    00:00 +12°C° 0 mm 5 m/s 753 mmHg 82%
    01:00 +12°C° 0 mm 5 m/s 753 mmHg 82%
    02:00 +12°C° 0 mm 5 m/s 752 mmHg 83%
    03:00 +12°C° 0.1 mm 5 m/s 753 mmHg 83%
    04:00 +12°C° 0.1 mm 5 m/s 753 mmHg 83%
    05:00 +10°C° 0.1 mm 5 m/s 753 mmHg 82%
    06:00 +11°C° 0.1 mm 6 m/s 753 mmHg 79%
    07:00 +13°C° 0.1 mm 6 m/s 753 mmHg 75%
    08:00 +13°C° 0.1 mm 6 m/s 754 mmHg 71%
    09:00 +14°C° 0.2 mm 6 m/s 754 mmHg 67%
    10:00 +15°C° 0.2 mm 7 m/s 754 mmHg 62%
    11:00 +15°C° 0.2 mm 7 m/s 754 mmHg 58%
    12:00 +15°C° 0.1 mm 7 m/s 754 mmHg 58%
    13:00 +15°C° 0.1 mm 7 m/s 754 mmHg 57%
    14:00 +15°C° 0.1 mm 6 m/s 754 mmHg 57%
    15:00 +14°C° 0.1 mm 6 m/s 755 mmHg 62%
    16:00 +13°C° 0.1 mm 6 m/s 755 mmHg 66%
    17:00 +12°C° 0.1 mm 5 m/s 755 mmHg 71%
    18:00 +12°C° 0.2 mm 5 m/s 755 mmHg 74%
    19:00 +12°C° 0.2 mm 5 m/s 756 mmHg 76%
    20:00 +12°C° 0.2 mm 5 m/s 756 mmHg 79%
    21:00 +10°C° 0.2 mm 5 m/s 756 mmHg 80%
    22:00 +10°C° 0.2 mm 5 m/s 756 mmHg 81%
    23:00 +11°C° 0.2 mm 4 m/s 756 mmHg 82%

    Amanhã, 22 Novembro, Quinta-feira

    Tempo Temperatura Precipitação Vento Pressão Humidade
    00:00 +11°C° 0.2 mm 4 m/s 756 mmHg 83%
    01:00 +11°C° 0.2 mm 4 m/s 756 mmHg 83%
    02:00 +11°C° 0.2 mm 4 m/s 756 mmHg 84%
    03:00 +11°C° 0.2 mm 4 m/s 756 mmHg 84%
    04:00 +11°C° 0.2 mm 4 m/s 756 mmHg 85%
    05:00 +11°C° 0.2 mm 4 m/s 756 mmHg 86%
    06:00 +11°C° 0.2 mm 4 m/s 756 mmHg 85%
    07:00 +12°C° 0.2 mm 3 m/s 756 mmHg 84%
    08:00 +12°C° 0.2 mm 3 m/s 756 mmHg 83%
    09:00 +13°C° 0.2 mm 3 m/s 756 mmHg 78%
    10:00 +14°C° 0.2 mm 4 m/s 756 mmHg 72%
    11:00 +15°C° 0.2 mm 4 m/s 756 mmHg 66%
    12:00 +15°C° 0.1 mm 4 m/s 756 mmHg 65%
    13:00 +15°C° 0.1 mm 4 m/s 756 mmHg 63%
    14:00 +17°C° 0.1 mm 4 m/s 755 mmHg 62%
    15:00 +14°C° 0.1 mm 4 m/s 756 mmHg 68%
    16:00 +13°C° 0.1 mm 4 m/s 756 mmHg 73%
    17:00 +12°C° 0.1 mm 3 m/s 756 mmHg 78%
    18:00 +12°C° 0.1 mm 3 m/s 757 mmHg 80%
    19:00 +11°C° 0.1 mm 3 m/s 757 mmHg 82%
    20:00 +11°C° 0.1 mm 3 m/s 757 mmHg 83%
    21:00 +11°C° 0.1 mm 3 m/s 757 mmHg 84%
    22:00 +11°C° 0.1 mm 3 m/s 758 mmHg 85%
    23:00 +11°C° 0.1 mm 3 m/s 758 mmHg 85%

    Depois de amanhã, 23 Novembro, Sexta-feira

    Tempo Temperatura Precipitação Vento Pressão Humidade
    00:00 +10°C° 0.1 mm 3 m/s 758 mmHg 86%
    01:00 +10°C° 0.1 mm 3 m/s 758 mmHg 87%
    02:00 +10°C° 0.1 mm 2 m/s 758 mmHg 88%
    03:00 +10°C° 0 mm 2 m/s 758 mmHg 88%
    04:00 +9°C° 0 mm 2 m/s 758 mmHg 89%
    05:00 +10°C° 0 mm 1 m/s 758 mmHg 90%
    06:00 +10°C° 0 mm 1 m/s 759 mmHg 88%
    07:00 +11°C° 0 mm 1 m/s 759 mmHg 85%
    08:00 +12°C° 0 mm 1 m/s 760 mmHg 83%
    09:00 +13°C° 0 mm 1 m/s 760 mmHg 75%
    10:00 +15°C° 0 mm 1 m/s 760 mmHg 66%
    11:00 +16°C° 0 mm 2 m/s 760 mmHg 58%
    12:00 +16°C° 0 mm 2 m/s 760 mmHg 56%
    13:00 +16°C° 0 mm 3 m/s 759 mmHg 54%
    14:00 +16°C° 0 mm 3 m/s 759 mmHg 52%
    15:00 +14°C° 0 mm 3 m/s 759 mmHg 57%
    16:00 +13°C° 0 mm 3 m/s 759 mmHg 61%
    17:00 +12°C° 0 mm 3 m/s 759 mmHg 65%
    18:00 +12°C° 0 mm 3 m/s 759 mmHg 67%
    19:00 +12°C° 0 mm 3 m/s 759 mmHg 68%
    20:00 +12°C° 0 mm 4 m/s 760 mmHg 69%
    21:00 +12°C° 0 mm 4 m/s 759 mmHg 70%
    22:00 +12°C° 0 mm 5 m/s 759 mmHg 71%
    23:00 +12°C° 0 mm 5 m/s 759 mmHg 72%

    24 Novembro, Sábado

    Tempo Temperatura Precipitação Vento Pressão Humidade
    00:00 +12°C° 0.1 mm 5 m/s 759 mmHg 74%
    01:00 +12°C° 0.1 mm 5 m/s 758 mmHg 76%
    02:00 +10°C° 0.1 mm 6 m/s 758 mmHg 78%
    03:00 +11°C° 0.1 mm 6 m/s 757 mmHg 78%
    04:00 +11°C° 0.1 mm 6 m/s 757 mmHg 78%
    05:00 +11°C° 0.1 mm 6 m/s 757 mmHg 78%
    06:00 +12°C° 0.3 mm 7 m/s 757 mmHg 79%
    07:00 +12°C° 0.3 mm 7 m/s 757 mmHg 81%
    08:00 +12°C° 0.3 mm 8 m/s 757 mmHg 82%
    09:00 +13°C° 0.4 mm 8 m/s 757 mmHg 82%
    10:00 +13°C° 0.4 mm 9 m/s 756 mmHg 82%
    11:00 +13°C° 0.4 mm 9 m/s 756 mmHg 83%
    12:00 +13°C° 0.6 mm 9 m/s 755 mmHg 84%
    13:00 +13°C° 0.6 mm 9 m/s 754 mmHg 85%
    14:00 +15°C° 0.6 mm 9 m/s 754 mmHg 86%
    15:00 +15°C° 1.4 mm 8 m/s 754 mmHg 88%
    16:00 +15°C° 1.4 mm 7 m/s 754 mmHg 91%
    17:00 +15°C° 1.4 mm 6 m/s 753 mmHg 93%
    18:00 +15°C° 0.1 mm 6 m/s 754 mmHg 93%
    19:00 +14°C° 0.1 mm 5 m/s 754 mmHg 93%
    20:00 +14°C° 0.1 mm 5 m/s 755 mmHg 93%
    21:00 +14°C° 0.1 mm 5 m/s 755 mmHg 94%
    22:00 +14°C° 0.1 mm 5 m/s 755 mmHg 94%
    23:00 +13°C° 0.1 mm 5 m/s 755 mmHg 94%

    25 Novembro, Domingo

    Tempo Temperatura Precipitação Vento Pressão Humidade
    00:00 +13°C° 0 mm 4 m/s 756 mmHg 93%
    01:00 +13°C° 0 mm 4 m/s 756 mmHg 93%
    02:00 +12°C° 0 mm 3 m/s 756 mmHg 92%
    03:00 +12°C° 0 mm 3 m/s 756 mmHg 92%
    04:00 +11°C° 0 mm 3 m/s 756 mmHg 92%
    05:00 +12°C° 0 mm 2 m/s 756 mmHg 91%
    06:00 +11°C° 0 mm 3 m/s 757 mmHg 88%
    07:00 +12°C° 0 mm 3 m/s 757 mmHg 85%
    08:00 +13°C° 0 mm 4 m/s 758 mmHg 82%
    09:00 +13°C° 0.1 mm 4 m/s 758 mmHg 80%
    10:00 +14°C° 0.1 mm 5 m/s 758 mmHg 77%
    11:00 +15°C° 0.1 mm 5 m/s 758 mmHg 75%
    12:00 +15°C° 0.3 mm 6 m/s 757 mmHg 78%
    13:00 +15°C° 0.3 mm 6 m/s 757 mmHg 81%
    14:00 +14°C° 0.3 mm 7 m/s 756 mmHg 85%
    15:00 +15°C° 0.8 mm 7 m/s 756 mmHg 87%
    16:00 +15°C° 0.8 mm 7 m/s 756 mmHg 90%
    17:00 +15°C° 0.8 mm 7 m/s 757 mmHg 93%
    18:00 +15°C° 0.3 mm 6 m/s 757 mmHg 90%
    19:00 +14°C° 0.3 mm 6 m/s 758 mmHg 87%
    20:00 +14°C° 0.3 mm 5 m/s 758 mmHg 84%
    21:00 +13°C° 0 mm 5 m/s 759 mmHg 85%
    22:00 +12°C° 0 mm 5 m/s 759 mmHg 85%
    23:00 +12°C° 0 mm 5 m/s 760 mmHg 86%

    26 Novembro, Segunda-feira

    Tempo Temperatura Precipitação Vento Pressão Humidade
    00:00 +10°C° 0 mm 5 m/s 760 mmHg 85%
    01:00 +10°C° 0 mm 5 m/s 760 mmHg 85%
    02:00 +11°C° 0 mm 4 m/s 760 mmHg 84%
    03:00 +11°C° 0 mm 4 m/s 760 mmHg 84%
    04:00 +10°C° 0 mm 4 m/s 761 mmHg 85%
    05:00 +10°C° 0 mm 4 m/s 761 mmHg 85%
    06:00 +11°C° 0 mm 4 m/s 761 mmHg 83%
    07:00 +12°C° 0 mm 4 m/s 762 mmHg 81%
    08:00 +13°C° 0 mm 4 m/s 762 mmHg 79%
    09:00 +14°C° 0 mm 4 m/s 762 mmHg 72%
    10:00 +15°C° 0 mm 5 m/s 763 mmHg 65%
    11:00 +16°C° 0 mm 5 m/s 763 mmHg 58%
    12:00 +16°C° 0 mm 5 m/s 762 mmHg 58%
    13:00 +16°C° 0 mm 5 m/s 762 mmHg 57%
    14:00 +15°C° 0 mm 5 m/s 762 mmHg 57%
    15:00 +14°C° 0 mm 4 m/s 762 mmHg 62%
    16:00 +13°C° 0 mm 4 m/s 763 mmHg 67%
    17:00 +12°C° 0 mm 3 m/s 763 mmHg 72%
    18:00 +11°C° 0 mm 3 m/s 764 mmHg 74%
    19:00 +12°C° 0 mm 2 m/s 764 mmHg 77%
    20:00 +10°C° 0 mm 2 m/s 765 mmHg 80%
    21:00 +11°C° 0 mm 1 m/s 765 mmHg 81%
    22:00 +11°C° 0 mm 1 m/s 765 mmHg 82%
    23:00 +10°C° 0 mm 1 m/s 765 mmHg 83%
    Mostrar mais